map of CHL home
CHL - Airport
Location
City:  Challis, Idaho, United States
ICAO:KLLJ
IATA:CHL
FAA LID:LLJ

Details
Type:Airport (Airfield)
Use:Public/Civil
Latitude:44°31'25"N (44.523583)
Longitude:114°13'04"W (-114.217916)
Datum:WGS 1984
Elevation:5072 ft (1546 m)
Variation:12.80°E (WMM2015 magnetic declination)
-0.12° annual change
Runways:1
Longest:4600 × 60 ft (1402 × 18.5 m), paved

Time
Time Zone:UTC-7 (DST-6)
Local Time:

Weather
METAR:KLLJ 160655Z AUTO 00000KT 10SM CLR 02/M06 A3040 RMK AO2 SLP297 T00171061 401391056 $

Related Locations
Nearby:
Farthest:ZSE: 10726 mi / 17263 km
St-Pierre (St-Pierre de la Réunion) [Pierrefonds], RE

Find:

   beyond  
but within

Other Information
Maps:
NOTAMs:
Links:
Sources:

  
  • flag of United States
  • flag of Idaho
  

Sectional Chart

Flight Planning
at skyvector.com

Satellite Image

Google Maps Satellite view

 

Copyright © 2004-2018 Karl L. Swartz. All rights reserved.
The Great Circle Mapper name and logo are trademarks of the Great Circle Mapper.
All other trademarks mentioned herein belong to their respective owners.
Please see credits for attibutions and further copyright information.

  Follow gcmap on Facebook Follow gcmap on Twitter Follow gcmap on Google+ GCmap on LinkedIn

hCard Microformat

Geo Microformat